User: anonymous   Login
Location: Bittelbronn
(48.4454°N, 8.5870°E)
Time: 05:43:51
(UTC+00:00)
Language:

IDEFIX/ARIANE 42P - Orbit

View from above orbital plane
View from above orbital plane
View from above satellite
View from above satellite

Ground track
Ground track

The orbit data is extracted from the following two-line orbital elements,

1 27422U 02021B   24205.53114995  .00000841  00000-0  34112-3 0  9999
2 27422  98.5275 142.4916 0012765 132.8352 227.3906 14.30180519157168
Epoch (UTC): 23 July 2024 12:44:51
Eccentricity: 0.0012765
inclination: 98.5275°
perigee height: 782 km
apogee height: 800 km
right ascension of ascending node: 142.4916°
argument of perigee: 132.8352°
revolutions per day: 14.30180519
mean anomaly at epoch: 227.3906°
orbit number at epoch: 15716

The dashed part of the orbit path shows where the satellite is in the earth's shadow,  

DLR